Regional Weather Roundup
Issued by NWS Upton, NY

Current Version | Previous Version | Graphics & Text | Print | Product List | Glossary Off
Versions: 1 2 3 4 5 6 7 8 9 10 11 12 13 14 15 16 17 18 19 20 21 22 23 24 25 26 27 28 29 30 31 32 33 34 35 36 37 38 39 40 41 42 43 44 45 46 47 48 49 50

000
ASUS41 KOKX 012208
RWROKX

REGIONAL WEATHER ROUNDUP
NATIONAL WEATHER SERVICE NEW YORK NY
600 PM EDT WED JUL 01 2015

NOTE: "FAIR" INDICATES FEW OR NO CLOUDS BELOW 12,000 FEET WITH NO
SIGNIFICANT WEATHER AND/OR OBSTRUCTIONS TO VISIBILITY.

NYZ071-072-176-178-NJZ106-104-012300-
NEW YORK CITY METRO AREA


CITY           SKY/WX    TMP DP  RH WIND       PRES   REMARKS
CENTRAL PARK   SUNNY     81  60  48 MISG      29.80R
LAGUARDIA APRT MOSUNNY   84  58  40 W15G24    29.76R
KENNEDY INTL   MOSUNNY   85  61  44 W18G25    29.78R
NEWARK/LIBERTY MOSUNNY   84  61  45 W16G28    29.77R
BRNX BOT. GARD   N/A     82  57  42 SW26      29.79R
TETERBORO      MOSUNNY   83  59  44 W13G21    29.76R
$$

NYZ177-179-078>081-012300-
LONG ISLAND NEW YORK

CITY           SKY/WX    TMP DP  RH WIND       PRES   REMARKS
FARMINGDALE    MOSUNNY   80  67  64 SW13      29.77S
ISLIP          MOSUNNY   78  66  66 SW15      29.75F
SHIRLEY        MOSUNNY   77  67  71 S12       29.78S
WESTHAMPTON    SUNNY     76  66  71 SW17G23   29.79S
MONTAUK POINT    N/A     74  66  76 SW10G16   29.79R
$$

NYZ052-065-067-012300-
HUDSON VALLEY

CITY           SKY/WX    TMP DP  RH WIND       PRES   REMARKS
WHITE PLAINS   MOSUNNY   80  60  50 W10G22    29.77R
NEWBURGH       MOSUNNY   77  63  61 W12G28    29.78R
MONTGOMERY     NOT AVBL
POUGHKEEPSIE   MOSUNNY   81  60  48 W14       29.74S
ALBANY         PTSUNNY   73  61  65 W20G26    29.74R
$$

NJZ001-105-106-008-010-013-015-019>022-104-012300-
NEW JERSEY

CITY           SKY/WX    TMP DP  RH WIND       PRES   REMARKS
NEWARK/LIBERTY MOSUNNY   84  61  45 W16G28    29.77R
TETERBORO      MOSUNNY   83  59  44 W13G21    29.76R
CALDWELL       SUNNY     82  58  43 W12G21    29.77S
MORRISTOWN     MOSUNNY   84  63  48 W15G24    29.78S
SOMERVILLE     SUNNY     81  62  52 VRB7      29.77R
SUSSEX         PTSUNNY   79  60  52 VRB5      29.78S
ANDOVER          N/A     78  60  53 VRB5      29.80S
TRENTON        SUNNY     83  61  47 W12       29.79S
MILLVILLE      MOSUNNY   83  65  54 W12G17    29.82F
ATLANTIC CITY  SUNNY     84  63  49 SW12      29.82S
WRIGHTSTOWN    SUNNY     83  64  54 W14       29.77S
TOMS RIVER     SUNNY     84  64  51 W13G20    29.80S
BELMAR         MOSUNNY   82  64  54 SW10      29.79S
$$

PAZ047>061-062-071-012300-
EASTERN PENNSYLVANIA

CITY           SKY/WX    TMP DP  RH WIND       PRES   REMARKS
PHILADELPHIA   PTSUNNY   85  60  42 W20       29.81S
ALLENTOWN      MOSUNNY   80  61  52 W10       29.81R
SCRANTON       CLOUDY    76  59  55 SW12      29.80F
$$

CTZ002-004>006-009-010-012-RIZ004-006-007-MAZ004-011-015-012300-
SOUTHERN NEW ENGLAND
 IN CT

CITY           SKY/WX    TMP DP  RH WIND       PRES   REMARKS
BRADLEY INTL   MOSUNNY   80  60  50 SW16      29.72R
HARTFORD       MOSUNNY   82  61  48 SW15G28   29.72S
DANBURY        MOSUNNY   78  61  55 SW10      29.77F
WTRBRY/OXFORD  MOSUNNY   79  63  57 SW7G17    29.79S
BRIDGEPORT     MOSUNNY   79  67  66 SW9       29.75R
MERIDEN        PTSUNNY   81  63  54 VRB7      29.74S
NEW HAVEN      MOSUNNY   77  67  71 SW9       29.75S
CHESTER        FAIR      77  66  69 SW9       29.77S
GROTON         SUNNY     75  66  73 SW10      29.75S
WILLIMANTIC    PTSUNNY   80  65  59 S10       29.74R

 IN RI

CITY           SKY/WX    TMP DP  RH WIND       PRES   REMARKS
PROVIDENCE     MOSUNNY   79  65  62 SW17G24   29.74R
BLOCK ISLAND   SUNNY     70  64  83 SW17G24   29.78R
WESTERLY       SUNNY     77  66  68 SW12      29.77S

 IN MA

CITY           SKY/WX    TMP DP  RH WIND       PRES   REMARKS
BOSTON         MOSUNNY   81  64  56 SW15G24   29.69R
WORCESTER      MOSUNNY   77  60  55 SW17      29.75R
WESTFIELD      SUNNY     80  60  50 SW17G24   29.71R
PROVINCETOWN   SUNNY     73  14  10 SW17G25   29.73S
NANTUCKET      SUNNY     69  64  84 SW12      29.79F
$$

ANZ330-335-338-340-345-350-353-355-012300-
COASTAL MARINE OBSERVATIONS


STATION/POSITION TIME  SKY/WX   TEMP    WIND        PRES    VSBY  WAVE
                                AIR SEA DIR/SP/G                  HT/PER
                 (UTC)          (F)     (DEG/KT/KT) (MB)    (MI)  (FT/S)
NY HARB ENTRANCE 2150            74 70  200/  8/ 10 1008.0          4/ 6
4S FIRE IS       2103               68                N/A           4/ 6
20S FIRE ISLAND  2150            70 67  210/ 14/ 16 1008.2          4/ 6
GREAT SOUTH BAY  2100            73 75  230/ 17/ 21   N/A
23SW MTP         2150            69 66  220/ 14/ 16 1008.2          4/ 6
HUDSON CANYON    NOT AVBL
KINGS POINT      2100            80 70  300/ 15/ 21 1007.1
CENTRAL LI SOUND NOT AVBL
EASTERN LI SOUND 2100            73 65  230/ 10/ 14   N/A
ROBBINS REEF     2100            81     260/ 19/ 22 1006.9
$$


>>>>>>>>>>>>>>>>>>>>>>>>>>>> KEY <<<<<<<<<<<<<<<<<<<<<<<<<<<
>                                                          <
>     SKY/WX - SKY CONDITION/PRESENT WEATHER               <
>     TMP    - TEMPERATURE IN FAHRENHEIT                   <
>     DP     - DEWPOINT IN FAHRENHEIT                      <
>     RH     - RELATIVE HUMIDITY IN PERCENT                <
>     WIND   - DIRECTION AND SPEED IN MPH                  <
>     PRES   - MEAN SEA LEVEL PRESSURE IN INCHES OF HG     <
>     WCI    - WIND CHILL INDEX                            <
>     VSB    - VISIBILITY IN MILES                         <
>     HX     - HEAT INDEX                                  <
>     TC     - TEMPERATURE IN CELSIUS                      <
>     VRB    - VARIABLE WIND DIRECTION                     <
>                                                          <
>>>>>>>>>>>>>>>>>>>>>>>>>>>> KEY <<<<<<<<<<<<<<<<<<<<<<<<<<<




USA.gov is the U.S. government's official web portal to all federal, state and local government web resources and services.